TimeCDT,TemperatureF,Dew PointF,Humidity,Sea Level PressureIn,VisibilityMPH,Wind Direction,Wind SpeedMPH,Gust SpeedMPH,PrecipitationIn,Events,Conditions,WindDirDegrees,DateUTC
12:15 AM,71.6,48.2,43,29.62,10.0,SSE,31.1,44.9,N/A,,Clear,160,2013-05-01 05:15:00
12:55 AM,69.8,51.8,53,29.63,10.0,SSE,31.1,41.4,N/A,,Clear,160,2013-05-01 05:55:00
1:15 AM,69.8,53.6,56,29.63,10.0,SSE,31.1,42.6,N/A,,Clear,160,2013-05-01 06:15:00
1:35 AM,68.0,55.4,64,29.64,10.0,SSE,29.9,43.7,N/A,,Clear,160,2013-05-01 06:35:00
1:55 AM,68.0,55.4,64,29.64,10.0,SSE,32.2,39.1,N/A,,Clear,160,2013-05-01 06:55:00
2:15 AM,68.0,55.4,64,29.65,10.0,SSE,27.6,40.3,N/A,,Clear,160,2013-05-01 07:15:00
2:35 AM,66.2,55.4,68,29.65,10.0,SSE,27.6,38.0,N/A,,Clear,160,2013-05-01 07:35:00
2:55 AM,64.4,55.4,73,29.66,10.0,South,25.3,35.7,N/A,,Clear,170,2013-05-01 07:55:00
3:15 AM,64.4,55.4,73,29.67,10.0,SSE,24.2,28.8,N/A,,Clear,160,2013-05-01 08:15:00
3:35 AM,64.4,55.4,73,29.68,10.0,South,12.7,27.6,N/A,,Clear,170,2013-05-01 08:35:00
3:55 AM,62.6,55.4,77,29.70,10.0,Calm,Calm,-,N/A,,Clear,0,2013-05-01 08:55:00
4:15 AM,62.6,55.4,77,29.70,10.0,SSE,9.2,-,N/A,,Clear,160,2013-05-01 09:15:00
4:35 AM,62.6,55.4,77,29.71,10.0,South,5.8,-,N/A,,Clear,190,2013-05-01 09:35:00
4:55 AM,60.8,53.6,77,29.73,10.0,West,4.6,-,N/A,,Clear,260,2013-05-01 09:55:00
5:15 AM,59.0,53.6,82,29.73,10.0,Calm,Calm,-,N/A,,Clear,0,2013-05-01 10:15:00
5:35 AM,57.2,51.8,82,29.73,10.0,SW,11.5,-,N/A,,Clear,230,2013-05-01 10:35:00
5:55 AM,59.0,53.6,82,29.74,10.0,SW,12.7,-,N/A,,Clear,230,2013-05-01 10:55:00
6:15 AM,59.0,48.2,67,29.78,10.0,WNW,17.3,21.9,N/A,,Clear,290,2013-05-01 11:15:00
6:35 AM,57.2,44.6,63,29.79,10.0,WNW,15.0,18.4,N/A,,Clear,290,2013-05-01 11:35:00
6:55 AM,55.4,41.0,58,29.81,10.0,WNW,16.1,20.7,N/A,,Clear,300,2013-05-01 11:55:00
7:15 AM,53.6,33.8,47,29.83,5.0,WNW,13.8,20.7,N/A,,Haze,300,2013-05-01 12:15:00
7:35 AM,53.6,33.8,47,29.85,4.0,WNW,13.8,20.7,N/A,,Haze,300,2013-05-01 12:35:00
7:55 AM,51.8,35.6,54,29.87,4.0,NW,23.0,31.1,N/A,,Haze,320,2013-05-01 12:55:00
8:15 AM,51.8,37.4,58,29.88,4.0,NNW,24.2,31.1,N/A,,Haze,330,2013-05-01 13:15:00
8:35 AM,51.8,37.4,58,29.89,5.0,NNW,24.2,40.3,N/A,,Haze,340,2013-05-01 13:35:00
8:55 AM,51.8,39.2,62,29.91,7.0,NNW,28.8,40.3,N/A,,Scattered Clouds,340,2013-05-01 13:55:00
9:15 AM,51.8,39.2,62,29.93,10.0,North,26.5,42.6,N/A,,Overcast,350,2013-05-01 14:15:00
9:35 AM,50.0,39.2,66,29.94,10.0,North,31.1,40.3,N/A,,Overcast,350,2013-05-01 14:35:00
9:55 AM,50.0,39.2,66,29.97,10.0,NNW,28.8,41.4,N/A,,Overcast,340,2013-05-01 14:55:00
10:15 AM,48.2,41.0,76,29.98,10.0,NNW,34.5,42.6,N/A,,Overcast,340,2013-05-01 15:15:00
10:35 AM,48.2,41.0,76,29.99,10.0,North,27.6,41.4,N/A,,Overcast,350,2013-05-01 15:35:00
10:55 AM,48.2,41.0,76,30.00,10.0,North,24.2,40.3,N/A,,Overcast,350,2013-05-01 15:55:00
11:15 AM,46.4,41.0,81,30.01,10.0,North,31.1,40.3,N/A,,Overcast,360,2013-05-01 16:15:00
11:55 AM,46.4,41.0,81,30.04,10.0,North,24.2,39.1,N/A,,Overcast,360,2013-05-01 16:55:00
12:15 PM,46.4,41.0,81,30.05,10.0,North,26.5,40.3,N/A,,Overcast,360,2013-05-01 17:15:00
12:35 PM,46.4,41.0,81,30.06,10.0,North,25.3,36.8,N/A,,Overcast,360,2013-05-01 17:35:00
12:55 PM,46.4,39.2,76,30.07,10.0,North,26.5,34.5,N/A,,Overcast,360,2013-05-01 17:55:00
1:15 PM,46.4,39.2,76,30.09,10.0,North,21.9,32.2,N/A,,Overcast,360,2013-05-01 18:15:00
1:35 PM,46.4,39.2,76,30.09,10.0,North,21.9,33.4,N/A,,Overcast,360,2013-05-01 18:35:00
1:55 PM,46.4,39.2,76,30.09,10.0,North,25.3,35.7,N/A,,Overcast,360,2013-05-01 18:55:00
2:15 PM,44.6,37.4,76,30.10,10.0,North,20.7,34.5,N/A,,Overcast,10,2013-05-01 19:15:00
2:35 PM,46.4,37.4,71,30.11,10.0,North,26.5,33.4,N/A,,Overcast,10,2013-05-01 19:35:00
2:55 PM,46.4,37.4,71,30.11,10.0,North,24.2,31.1,N/A,,Overcast,10,2013-05-01 19:55:00
3:15 PM,46.4,37.4,71,30.12,10.0,North,24.2,33.4,N/A,,Overcast,10,2013-05-01 20:15:00
3:35 PM,46.4,37.4,71,30.13,10.0,North,23.0,31.1,N/A,,Overcast,10,2013-05-01 20:35:00
3:55 PM,44.6,35.6,71,30.14,10.0,North,23.0,29.9,N/A,,Overcast,10,2013-05-01 20:55:00
4:15 PM,44.6,35.6,71,30.14,10.0,NNE,26.5,34.5,N/A,,Overcast,20,2013-05-01 21:15:00
4:35 PM,44.6,35.6,71,30.14,10.0,North,26.5,34.5,N/A,,Overcast,10,2013-05-01 21:35:00
4:55 PM,44.6,35.6,71,30.14,10.0,North,25.3,34.5,N/A,,Overcast,10,2013-05-01 21:55:00
5:15 PM,44.6,35.6,71,30.15,10.0,North,20.7,31.1,N/A,,Overcast,10,2013-05-01 22:15:00
5:35 PM,44.6,35.6,71,30.16,10.0,North,20.7,32.2,N/A,,Overcast,10,2013-05-01 22:35:00
5:55 PM,42.8,35.6,76,30.17,10.0,North,18.4,31.1,N/A,,Overcast,10,2013-05-01 22:55:00
6:15 PM,42.8,35.6,76,30.18,10.0,North,27.6,34.5,N/A,,Overcast,10,2013-05-01 23:15:00
6:35 PM,42.8,33.8,70,30.18,10.0,NNE,23.0,31.1,N/A,,Overcast,20,2013-05-01 23:35:00
6:55 PM,42.8,35.6,76,30.20,10.0,North,24.2,29.9,N/A,,Overcast,360,2013-05-01 23:55:00
7:15 PM,41.0,33.8,76,30.21,10.0,North,26.5,34.5,N/A,,Overcast,10,2013-05-02 00:15:00
7:35 PM,41.0,35.6,81,30.22,10.0,North,24.2,31.1,N/A,,Overcast,360,2013-05-02 00:35:00
7:55 PM,39.2,35.6,87,30.23,7.0,North,19.6,29.9,N/A,,Overcast,10,2013-05-02 00:55:00
8:15 PM,37.4,33.8,87,30.24,7.0,North,19.6,32.2,N/A,,Overcast,10,2013-05-02 01:15:00
8:35 PM,37.4,33.8,87,30.25,10.0,North,19.6,29.9,N/A,,Overcast,10,2013-05-02 01:35:00
8:55 PM,37.4,33.8,87,30.27,10.0,NNE,24.2,33.4,N/A,,Overcast,20,2013-05-02 01:55:00
9:15 PM,37.4,33.8,87,30.28,10.0,NNE,19.6,29.9,N/A,,Overcast,20,2013-05-02 02:15:00
9:35 PM,37.4,33.8,87,30.30,10.0,North,21.9,33.4,N/A,,Overcast,10,2013-05-02 02:35:00
10:15 PM,35.6,33.8,93,30.34,10.0,North,25.3,34.5,N/A,,Overcast,10,2013-05-02 03:15:00
10:35 PM,35.6,32.0,87,30.34,10.0,North,29.9,38.0,N/A,,Overcast,360,2013-05-02 03:35:00
10:55 PM,35.6,32.0,87,30.36,10.0,North,25.3,38.0,N/A,,Overcast,10,2013-05-02 03:55:00
11:15 PM,35.6,32.0,87,30.37,7.0,North,27.6,35.7,N/A,,Overcast,10,2013-05-02 04:15:00
11:35 PM,35.6,32.0,87,30.37,10.0,North,21.9,34.5,N/A,,Overcast,10,2013-05-02 04:35:00
11:55 PM,35.6,32.0,87,30.37,10.0,North,27.6,36.8,N/A,,Overcast,10,2013-05-02 04:55:00